Flag for U.S.A. Weather past 2 weeks in Idaho Falls, Idaho, U.S.A.

Now
64 °F

Clear.


Feels Like: 64 °F
Forecast: 57 / 88 °F
Wind: 9 mph from Southwest

Location: Fanning Field

Current Time: Jul 22, 2014 at 5:37:58 AM

Latest Report: Jul 22, 2014 at 4:53 AM


Visibility: 10 mi

Pressure: 30.09 "Hg

Humidity: 63%

Dew point: 51 °F

Location of Idaho FallsLocation

Historic Weather in Idaho Falls — Graph

°F

Idaho Falls temperature yesterday

Maximum temperature yesterday: 89 °F (at 3:53 PM)
Minimum temperature yesterday: 66 °F (at 6:53 AM)
Average temperature yesterday: 76 °F

Past Weeks' High & Low Weather Summary

 TemperatureHumidityPressure
High92 °F (Jul 8, 4:53 PM)93% (Jul 15, 6:53 AM)30.14 "Hg (Jul 15, 6:53 AM)
Low51 °F (Jul 8, 4:53 AM)17% (Jul 18, 3:53 PM)29.75 "Hg (Jul 9, 7:53 PM)
Average73 °F47%29.92 "Hg
* Reported Jul 7 3:53 AM — Jul 22 3:53 AM, Idaho Falls, Weather by CustomWeather, © 2014

Note: Actual official high and low records may vary slightly from our data, if they occured in-between our weather recording intervals... More about our weather records

Advertising

Idaho Falls weather history for previous 24 hours

 ConditionsComfort  
Time TempWeatherWind HumidityBarometerVisibility
3:53 AM
Jul 22
64 °FClear.3 mph58%30.06 "Hg10 mi
2:53 AM63 °FClear.8 mph60%30.05 "Hg10 mi
1:53 AM68 °FClear.10 mph49%30.02 "Hg10 mi
12:53 AM70 °FPassing clouds.10 mph44%30.03 "Hg10 mi
11:53 PM
Jul 21
67 °FClear.No wind55%30.01 "Hg10 mi
10:53 PM72 °FSunny.16 mph43%30.03 "Hg10 mi
9:53 PM71 °FSunny.14 mph42%30.01 "Hg10 mi
8:53 PM77 °FPassing clouds.17 mph30%29.96 "Hg10 mi
7:53 PM82 °FSunny.14 mph34%29.93 "Hg10 mi
6:53 PM78 °FPartly sunny.7 mph45%29.92 "Hg10 mi
5:53 PM84 °FPartly sunny.17 mph29%29.91 "Hg10 mi
4:53 PM86 °FPartly sunny.17 mph29%29.90 "Hg10 mi
3:53 PM89 °FScattered clouds.21 mph25%29.87 "Hg10 mi
2:53 PM87 °FScattered clouds.21 mph25%29.89 "Hg10 mi
1:53 PM85 °FScattered clouds.21 mph28%29.92 "Hg10 mi
12:53 PM83 °FScattered clouds.20 mph31%29.94 "Hg10 mi
11:53 AM81 °FScattered clouds.21 mph34%29.94 "Hg10 mi
10:53 AM77 °FScattered clouds.17 mph40%29.95 "Hg10 mi
9:53 AM76 °FScattered clouds.14 mph43%29.94 "Hg10 mi
8:53 AM73 °FScattered clouds.15 mph46%29.93 "Hg10 mi
7:53 AM69 °FPassing clouds.14 mph55%29.91 "Hg10 mi
6:53 AM66 °FClear.10 mph56%29.90 "Hg10 mi
5:53 AM68 °FClear.12 mph53%29.88 "Hg10 mi
Weather by CustomWeather, © 2014

See weather overviewHow to use our weather pages